FW3278 Weather Reports


Display with metric or nautical units.
time (UTC)temp
F
wind
direction
speed
MPH
gust
MPH
rain 1hr
in
rain 24hr
in
rain mn
in
humidity
%
barometer
mb
20260902182703 52 157 5.0 14.0 0.00 0.00 0.00 71 1009.1
20260902181803 51 157 4.0 10.0 0.00 0.00 0.00 71 1009.0
20260902180903 51 157 4.0 11.0 0.00 0.00 0.00 72 1009.0
20260902180005 51 157 5.0 11.0 0.00 0.00 0.00 72 1009.1
20260902175403 51 157 4.0 11.0 0.00 0.00 0.00 72 1009.0
20260902174524 51 157 4.0 10.0 0.00 0.00 0.00 72 1009.0
20260902173603 51 157 3.0 9.0 0.00 0.00 0.00 72 1009.2
20260902172703 51 157 3.0 9.0 0.00 0.00 0.00 72 1009.4
20260902171824 51 157 2.0 10.0 0.00 0.00 0.00 72 1009.4
20260902170903 52 157 3.0 4.0 0.00 0.00 0.00 71 1009.3
20260902170003 52 157 5.0 9.0 0.00 0.00 0.00 71 1009.3
20260902165403 52 157 5.0 13.0 0.00 0.00 0.00 71 1009.4
20260902164503 51 157 5.0 11.0 0.00 0.00 0.00 72 1009.6
20260902163603 52 157 5.0 11.0 0.00 0.00 0.00 73 1009.8
20260902162703 52 157 4.0 10.0 0.00 0.00 0.00 73 1010.0
20260902161803 52 157 5.0 11.0 0.00 0.00 0.00 73 1010.1
20260902160924 51 157 5.0 13.0 0.00 0.00 0.00 74 1010.2
20260902160003 51 157 5.0 12.0 0.00 0.00 0.00 75 1010.1
20260902155402 51 157 4.0 13.0 0.00 0.00 0.00 76 1010.1
20260902154503 51 157 4.0 11.0 0.00 0.00 0.00 76 1010.1
20260902153602 50 157 4.0 14.0 0.00 0.00 0.00 77 1010.2
20260902152703 50 157 3.0 6.0 0.00 0.00 0.00 76 1010.2
20260902151802 50 157 4.0 10.0 0.00 0.00 0.00 76 1010.2
20260902150903 50 157 3.0 10.0 0.00 0.00 0.00 76 1010.2
20260902150003 50 157 4.0 9.0 0.00 0.00 0.00 76 1010.0
20260902145402 50 157 4.0 9.0 0.00 0.00 0.00 76 1010.0
20260902144502 50 157 4.0 9.0 0.00 0.00 0.00 76 1010.0
20260902143602 50 157 3.0 9.0 0.00 0.02 0.00 75 1010.0
20260902142705 50 157 3.0 6.0 0.00 0.03 0.00 75 1010.1
20260902141803 50 157 3.0 6.0 0.00 0.04 0.00 74 1010.2
20260902140903 51 157 3.0 8.0 0.00 0.04 0.00 73 1010.3
20260902140025 51 157 4.0 8.0 0.00 0.05 0.00 73 1010.4
20260902135403 51 157 4.0 9.0 0.00 0.05 0.05 72 1010.5
20260902134523 51 157 5.0 11.0 0.00 0.05 0.05 71 1010.5
20260902133602 51 157 5.0 14.0 0.00 0.05 0.05 71 1010.5
20260902132702 51 157 5.0 12.0 0.00 0.05 0.05 71 1010.6
20260902131802 51 157 5.0 10.0 0.00 0.05 0.05 71 1010.7
20260902130923 51 157 5.0 12.0 0.00 0.06 0.05 71 1010.9
20260902130002 52 157 5.0 11.0 0.00 0.06 0.05 71 1010.9
20260902125403 52 157 5.0 10.0 0.00 0.06 0.05 71 1010.9
20260902124502 52 157 5.0 13.0 0.00 0.06 0.05 71 1011.1
20260902123602 52 157 5.0 10.0 0.00 0.06 0.05 71 1011.1
20260902122702 52 157 5.0 10.0 0.00 0.06 0.05 71 1011.2
20260902121802 53 157 5.0 13.0 0.00 0.08 0.05 71 1011.4
20260902120923 53 157 7.0 13.0 0.00 0.08 0.05 72 1011.6
20260902120003 53 157 6.0 18.0 0.00 0.08 0.05 72 1011.6
20260902115402 53 157 5.0 14.0 0.00 0.08 0.05 73 1011.7
20260902114503 52 157 5.0 12.0 0.00 0.08 0.05 74 1011.6
20260902113623 52 157 4.0 12.0 0.00 0.08 0.05 75 1011.6
20260902112702 52 157 4.0 8.0 0.00 0.08 0.05 77 1011.6
20260902111802 52 157 2.0 9.0 0.00 0.08 0.05 78 1011.7
20260902110923 52 157 1.0 6.0 0.00 0.08 0.05 78 1011.7
20260902110003 52 157 1.0 4.0 0.00 0.08 0.05 78 1011.7
20260902105402 52 157 0.0 4.0 0.00 0.08 0.05 78 1011.7
20260902104502 52 157 0.0 2.0 0.00 0.09 0.05 79 1011.8
20260902103602 52 157 1.0 3.0 0.00 0.10 0.05 79 1011.8
20260902102702 51 157 1.0 2.0 0.00 0.10 0.05 79 1011.8
20260902101802 51 157 0.0 2.0 0.00 0.10 0.05 80 1011.7
20260902095403 51 0 0.0 2.0 0.00 0.10 0.05 80 1011.5
20260902094504 51 0 0.0 0.0 0.00 0.10 0.05 79 1011.4
20260902093624 51 0 0.0 0.0 0.00 0.10 0.05 78 1011.3
20260902092724 51 0 0.0 0.0 0.00 0.10 0.05 77 1011.2
20260902091803 51 0 0.0 0.0 0.00 0.10 0.05 77 1011.1
20260902090903 51 0 0.0 0.0 0.00 0.10 0.05 76 1011.1
20260902090004 51 0 0.0 0.0 0.00 0.10 0.05 75 1011.0
20260902085403 52 0 0.0 0.0 0.00 0.10 0.05 75 1011.1
20260902084524 52 0 0.0 0.0 0.00 0.10 0.05 74 1011.1
20260902083603 52 0 0.0 0.0 0.00 0.10 0.05 73 1011.2
20260902082703 53 0 0.0 0.0 0.00 0.10 0.05 72 1011.2
20260902081803 54 0 0.0 0.0 0.00 0.10 0.05 72 1011.1
20260902080924 54 0 0.0 2.0 0.00 0.10 0.05 72 1011.1
20260902080004 54 157 0.0 2.0 0.00 0.10 0.05 71 1011.1
20260902075403 55 157 0.0 2.0 0.00 0.10 0.05 70 1011.1
20260902074503 55 157 0.0 4.0 0.00 0.10 0.05 69 1011.1
20260902073624 56 157 0.0 2.0 0.00 0.10 0.05 68 1011.0
20260902072724 56 157 1.0 4.0 0.00 0.10 0.05 67 1011.0
20260902071803 57 157 1.0 6.0 0.00 0.10 0.05 65 1011.0
20260902070903 58 157 2.0 5.0 0.00 0.10 0.05 64 1010.9
20260902070005 58 157 2.0 6.0 0.00 0.10 0.05 64 1010.9
20260902065403 58 157 2.0 6.0 0.00 0.10 0.05 63 1011.0
20260902064524 59 157 2.0 5.0 0.00 0.10 0.05 63 1011.1
20260902063603 59 157 2.0 9.0 0.00 0.10 0.05 63 1011.2
20260902062703 59 157 2.0 9.0 0.00 0.10 0.05 63 1011.3
20260902061803 60 157 2.0 8.0 0.00 0.10 0.05 63 1011.4
20260902060903 60 157 2.0 6.0 0.00 0.10 0.05 63 1011.5
20260902060003 60 157 2.0 6.0 0.00 0.10 0.05 63 1011.6
20260902055403 60 157 3.0 9.0 0.00 0.10 0.05 63 1011.6
20260902054503 60 157 3.0 9.0 0.00 0.10 0.05 62 1011.6
20260902053603 60 157 3.0 11.0 0.00 0.10 0.05 62 1011.7
20260902052703 60 157 4.0 11.0 0.00 0.10 0.05 63 1011.8
20260902051824 60 157 4.0 11.0 0.00 0.10 0.05 62 1011.8
20260902050903 60 157 4.0 10.0 0.00 0.10 0.05 62 1011.9
20260902050006 61 157 4.0 9.0 0.00 0.10 0.05 61 1012.0
20260902045424 61 157 3.0 11.0 0.00 0.10 0.05 61 1011.9
20260902044503 61 157 3.0 6.0 0.00 0.10 0.05 63 1011.9
20260902043603 61 157 4.0 9.0 0.00 0.10 0.05 62 1011.9
20260902042703 61 157 3.0 8.0 0.00 0.10 0.05 63 1011.9
20260902041803 60 157 3.0 6.0 0.00 0.10 0.05 65 1011.8
20260902040903 60 157 3.0 6.0 0.00 0.10 0.05 64 1012.1
20260902040024 60 157 3.0 8.0 0.00 0.10 0.05 63 1012.1
20260902035403 61 157 3.0 9.0 0.00 0.10 0.05 63 1012.1
20260902034503 60 157 3.0 9.0 0.00 0.10 0.05 64 1012.2
20260902033603 60 157 3.0 10.0 0.00 0.10 0.05 62 1012.3
20260902032724 60 157 3.0 10.0 0.00 0.10 0.05 64 1012.5
20260902031803 60 157 3.0 6.0 0.00 0.10 0.05 66 1012.7
20260902030903 59 157 5.0 9.0 0.00 0.10 0.05 66 1012.9
20260902030003 59 157 5.0 10.0 0.00 0.10 0.05 66 1013.0
20260902025403 59 157 4.0 10.0 0.00 0.10 0.05 66 1013.1
20260902024503 60 157 4.0 11.0 0.00 0.10 0.05 66 1013.4
20260902023624 59 157 4.0 12.0 0.00 0.10 0.05 66 1013.6
20260902022703 59 157 5.0 12.0 0.00 0.10 0.05 69 1013.7
20260902021803 58 157 5.0 9.0 0.00 0.10 0.05 70 1013.9
20260902020903 57 157 4.0 12.0 0.00 0.10 0.05 70 1014.0
20260902020003 57 157 4.0 10.0 0.00 0.10 0.05 70 1014.2
20260902015403 56 157 4.0 10.0 0.00 0.10 0.05 71 1014.0
20260902014524 57 157 4.0 11.0 0.00 0.10 0.05 70 1014.2
20260902013624 57 157 3.0 11.0 0.00 0.10 0.05 69 1014.3
20260902012703 57 157 4.0 9.0 0.00 0.10 0.05 69 1014.5
20260902011803 57 157 4.0 11.0 0.00 0.10 0.05 70 1014.6
20260902010903 56 157 5.0 12.0 0.00 0.10 0.05 71 1014.5
20260902010003 56 157 5.0 12.0 0.00 0.10 0.05 71 1014.7
20260902005403 56 157 4.0 12.0 0.00 0.10 0.05 72 1014.7
20260902004503 56 157 4.0 9.0 0.00 0.10 0.05 71 1014.9
20260902003603 56 157 5.0 13.0 0.00 0.10 0.05 69 1015.1
20260902002703 56 157 4.0 15.0 0.00 0.10 0.05 70 1014.9
20260902001824 56 157 4.0 10.0 0.00 0.10 0.05 72 1014.9
20260902000903 55 157 3.0 12.0 0.00 0.10 0.05 74 1015.2
20260902000003 54 157 4.0 11.0 0.00 0.10 0.05 76 1015.2
20260901235424 54 157 4.0 11.0 0.00 0.10 0.05 76 1015.1
20260901234503 54 157 5.0 12.0 0.00 0.10 0.05 76 1015.2
20260901233603 54 157 4.0 10.0 0.00 0.10 0.05 77 1015.2
20260901232703 54 157 3.0 10.0 0.00 0.10 0.05 77 1015.3
20260901231803 53 157 3.0 9.0 0.00 0.10 0.05 79 1015.3
20260901230903 53 157 3.0 9.0 0.00 0.10 0.05 79 1015.3
20260901230003 53 157 3.0 10.0 0.00 0.10 0.05 80 1015.3
20260901225403 53 157 3.0 9.0 0.00 0.10 0.05 81 1015.3
20260901224503 53 157 3.0 9.0 0.00 0.10 0.05 81 1015.3
20260901223624 53 157 4.0 13.0 0.00 0.10 0.05 81 1015.2
20260901222703 53 157 3.0 12.0 0.00 0.10 0.05 82 1015.1
20260901221803 53 157 3.0 10.0 0.00 0.10 0.05 83 1015.1
20260901220903 53 157 2.0 9.0 0.00 0.10 0.05 84 1015.0
20260901220003 53 157 2.0 5.0 0.00 0.10 0.05 86 1014.8
20260901215403 52 157 2.0 9.0 0.00 0.10 0.05 86 1014.8
20260901214503 52 157 2.0 9.0 0.00 0.10 0.05 87 1014.7
20260901213603 52 157 1.0 5.0 0.00 0.10 0.05 87 1014.6
20260901212703 52 157 2.0 4.0 0.00 0.10 0.05 87 1014.6
20260901211803 52 157 2.0 8.0 0.00 0.10 0.05 87 1014.6
20260901210903 52 157 1.0 8.0 0.00 0.10 0.05 87 1014.5
20260901210003 52 157 1.0 6.0 0.00 0.10 0.05 87 1014.4
20260901205424 52 157 1.0 6.0 0.00 0.10 0.05 87 1014.3
20260901204503 52 261 1.0 5.0 0.00 0.11 0.05 88 1014.2
20260901203603 52 257 3.0 8.0 0.00 0.11 0.05 88 1014.0
20260901202703 52 252 2.0 11.0 0.00 0.11 0.05 89 1013.9
20260901201803 53 263 1.0 8.0 0.00 0.11 0.05 89 1013.8
20260901200903 53 285 2.0 5.0 0.00 0.11 0.05 89 1013.6
20260901200003 53 271 2.0 9.0 0.00 0.11 0.05 89 1013.5
20260901195403 53 250 2.0 9.0 0.00 0.11 0.05 89 1013.5
20260901194503 54 224 1.0 6.0 0.00 0.11 0.05 89 1013.3
20260901193602 54 205 1.0 6.0 0.00 0.11 0.05 89 1013.3
20260901192703 54 258 2.0 6.0 0.00 0.11 0.05 89 1013.3
20260901191803 54 263 2.0 9.0 0.00 0.11 0.05 88 1013.3
20260901190903 55 242 2.0 9.0 0.00 0.11 0.05 87 1013.1
20260901190003 55 258 2.0 7.0 0.00 0.11 0.05 86 1013.1
20260901185424 56 255 2.0 9.0 0.00 0.11 0.05 86 1012.9
20260901184503 57 196 1.0 10.0 0.00 0.11 0.05 85 1012.8
20260901183603 58 157 1.0 4.0 0.00 0.11 0.05 84 1012.6